This is the latest recevied weather packets stored in our database for station/object W4DHW-4. If no packets are shown the sender has not sent any weather packets the latest 10 day(s).
| Time | Temp. | Humidity | Pressure | Rain* | Wind** | Luminosity | Snow |
|---|---|---|---|---|---|---|---|
| 1778025133 | 23.89° C | 37% | 1011.6 hPa | 0 mm | - | 11 W/m² | - |
| 1778024829 | 23.89° C | 37% | 1011.8 hPa | 0 mm | - | 16 W/m² | - |
| 1778024527 | 23.89° C | 37% | 1011.8 hPa | 0 mm | - | 22 W/m² | - |
| 1778024223 | 23.89° C | 36% | 1011.6 hPa | 0 mm | - | 26 W/m² | - |
| 1778023921 | 23.89° C | 37% | 1011.7 hPa | 0 mm | - | 29 W/m² | - |
| 1778023618 | 24.44° C | 37% | 1011.6 hPa | 0 mm | - | 34 W/m² | - |
| 1778023316 | 24.44° C | 36% | 1011.7 hPa | 0 mm | - | 39 W/m² | - |
| 1778023012 | 24.44° C | 35% | 1011.6 hPa | 0 mm | - | 44 W/m² | - |
| 1778022711 | 25° C | 34% | 1011.5 hPa | 0 mm | - | 49 W/m² | - |
| 1778022409 | 25° C | 34% | 1011.7 hPa | 0 mm | - | 54 W/m² | - |
| 1778022105 | 25° C | 35% | 1011.5 hPa | 0 mm | - | 79 W/m² | - |
| 1778021801 | 25° C | 36% | 1011.8 hPa | 0 mm | - | 91 W/m² | - |
| 1778021498 | 25° C | 36% | 1011.8 hPa | 0 mm | - | 102 W/m² | - |
| 1778021194 | 25° C | 34% | 1011.9 hPa | 0 mm | - | 122 W/m² | - |
| 1778020892 | 25° C | 36% | 1012 hPa | 0 mm | - | 135 W/m² | - |
| 1778020589 | 25° C | 34% | 1011.7 hPa | 0 mm | - | 151 W/m² | - |
| 1778020285 | 25.56° C | 36% | 1012.1 hPa | 0 mm | - | 185 W/m² | - |
| 1778019981 | 25.56° C | 36% | 1011.8 hPa | 0 mm | - | 245 W/m² | - |
| 1778019677 | 25° C | 36% | 1011.8 hPa | 0 mm | - | 277 W/m² | - |
| 1778019374 | 25° C | 36% | 1011.7 hPa | 0 mm | - | 137 W/m² | - |
| 1778019071 | 25° C | 37% | 1011.9 hPa | 0 mm | - | 144 W/m² | - |
| 1778018769 | 24.44° C | 37% | 1011.9 hPa | 0 mm | - | 134 W/m² | - |
| 1778018466 | 25° C | 37% | 1012.3 hPa | 0 mm | - | 118 W/m² | - |
| 1778018164 | 25° C | 37% | 1011.9 hPa | 0 mm | - | 134 W/m² | - |
| 1778017861 | 25° C | 37% | 1011.9 hPa | 0 mm | - | 210 W/m² | - |
* Rain latest hour (hover to see other rain measurements)
** Current wind speed in m/s (hover to see current wind gust speed)